[ hide orbit diagram ]
For accurate long-term ephemerides, please instead use our Horizons system.This orbit viewer was implemented using two-body methods, and hence should not be used for determining accurate long-term trajectories (over several years or decades) or planetary encounter circumstances.
Orbital Elements at Epoch 2459000.5 (2020-May-31.0) TDB
Reference: JPL 42 (heliocentric ecliptic J2000)
Element | Value | Uncertainty (1-sigma) | Units |
e | .3090877316703465 | 3.5748e-08 | |
a | 2.58699367385829 | 8.2015e-09 | au |
q | 1.787385667359895 | 9.2626e-08 | au |
i | 24.40703810755074 | 4.561e-06 | deg |
node | 112.1168927309836 | 1.0474e-05 | deg |
peri | 266.9736035623794 | 1.2847e-05 | deg |
M | 4.827134697761969 | 1.0572e-05 | deg |
tp | 2458980.121210007896 (2020-May-10.62121001) | 4.4565e-05 | TDB |
period | 1519.817626087528 4.16 | 7.2274e-06 1.979e-08 | d yr |
n | .2368705256608646 | 1.1264e-09 | deg/d |
Q | 3.386601680356685 | 1.0736e-08 | au |
|
| | Orbit Determination Parameters
Additional Information
|
[ show covariance matrix ]
Physical Parameter Table
Parameter |
Symbol |
Value |
Units |
Sigma |
Reference |
Notes |
absolute magnitude |
H |
9.1 |
|
n/a |
MPO492757 |
IRAS observations used: 3 |
diameter |
diameter |
63.909 |
km |
0.212 |
urn:nasa:pds:neowise_diameters_albedos::2.0[mainbelt] (http://adsabs.harvard.edu/abs/2014ApJ...791..121M) |
|
rotation period |
rot_per |
8.452 |
h |
n/a |
LCDB (Rev. 2020-October); Warner et al., 2009 |
Published Reference List: [Schober, H.J.; Erikson, A.; Hahn, G.; Lagerkvist, C.-I.; et al. (1994) Astron. Astrophys. Suppl. Ser. 105, 281-300.] [Chiorny, V.G.; Shevchenko, V.G.; Krugly, Yu.N.; Velichko, F.P.; Gaftonyuk, N.M. (2003) Abstracts of Photometry and Polarimetry of Asteroids: Impact on Collaboration, Kharkiv, 9-10.] [Behrend, R. (2004) Observatoire de Geneve web site, http://obswww.unige.ch/~behrend/page_cou.html] [Behrend, R. (2005) Observatoire de Geneve web site, http://obswww.unige.ch/~behrend/page_cou.html] [Marciniak, A.; Michalowski, T.; Polinska, M.; Bartczak, P.; et al. (2011) Astron. Astrophys. 529, A107.] [Wang, Y.-B.; Xu, Y.; Fan, C.-B.; Liu, C.-Z. (2018). Astron. Nach. 339, 457-464.] |
geometric albedo |
albedo |
0.110 |
|
0.009 |
urn:nasa:pds:neowise_diameters_albedos::2.0[mainbelt] (http://adsabs.harvard.edu/abs/2014ApJ...791..121M) |
|
B-V |
BV |
0.857 |
|
0.030 |
EAR-A-5-DDR-UBV-MEAN-VALUES-V1.2 |
#obs=3; phase (min.=13.21, mean=21.87, max.=26.35) deg. |
U-B |
UB |
0.447 |
|
0.015 |
EAR-A-5-DDR-UBV-MEAN-VALUES-V1.2 |
#obs=3; phase (min.=13.21, mean=21.87, max.=26.35) deg. |
Tholen spectral type |
spec_T |
I |
|
n/a |
EAR-A-5-DDR-TAXONOMY-V4.0 |
used 2 color indices; used ground-based radiometric albedo |
SMASSII spectral type |
spec_B |
K |
|
n/a |
EAR-A-5-DDR-TAXONOMY-V4.0 |
based on a high-resolution spectrum by Xu et al. (1995) or Bus and Binzel (2002) |
|
679 Pax (A909 BR) Discovered 1909-Jan-28 by Kopff, A. at Heidelberg |
Reference: DISCOVERY.DB | Last Updated: 2003-08-29 |
|
|